www.pogodaiklimat.ru
Время
и дата
21:53 26.10
22:53 26.10
23:53 26.10
00:53 27.10
01:53 27.10
02:53 27.10
03:53 27.10
04:53 27.10
05:53 27.10
06:53 27.10
07:53 27.10
08:53 27.10
09:53 27.10
10:53 27.10
11:53 27.10
12:01 27.10
12:43 27.10
12:53 27.10
13:26 27.10
13:46 27.10
13:53 27.10
14:53 27.10
15:36 27.10
15:53 27.10
16:00 27.10
16:49 27.10
16:53 27.10
17:00 27.10
17:53 27.10
18:27 27.10
18:53 27.10
19:46 27.10
19:53 27.10
20:53 27.10
21:53 27.10
22:37 27.10
22:53 27.10
23:11 27.10
23:53 27.10
00:53 28.10
01:53 28.10
02:53 28.10
03:14 28.10
03:53 28.10
04:19 28.10
04:53 28.10
05:53 28.10
06:53 28.10
Ветер
(напр.,м/с)
Видим. Явления Облачность Т
(С)
Тd
(С)
f
(%)
Тe
(С)
Тes
(С)
Комфортность P
(гПа)
Po
(гПа)
Тmin
(С)
Tmax
(С)
R
(мм)
R24
(мм)
S
(см)
СЗ 1 16 км 10/0 2850 м
[Ac]
+5.6 +0.6 70 +3 +3 1025.2 1001.6
СЗ 1 16 км 10/0 2700 м
[Ac]
+5.0 +0.6 73 +3 +3 1025.8 1001.9
СЗ 1 16 км 10/0 2700 м
[Ac]
+5.0 +1.1 76 +2 +2 1026.2 1002.2
СЗ 1 16 км 10/5 750 м
[Ac]
+5.0 +0.6 73 +2 +2 1026.2 1002.6 +5.0 +6.7
СЗ 1 16 км 10/2 750 м
[Ac]
+4.4 +0.6 76 +2 +2 1026.0 1002.2
СЗ 1 16 км 10/2 750 м
[Ac]
+5.0 +0.6 73 +3 +3 1025.9 1002.2
СЗ 1 16 км 10/5 1350 м
[Ac]
+3.9 +0.6 79 +1 +1 1025.8 1001.9
З 1 16 км 10/2 1350 м
[Ac]
+4.4 +0.6 76 +2 +2 1025.7 1001.9
З 1 16 км 10/5 1500 м
[Ac]
+4.4 +1.1 79 +1 +1 1026.2 1002.2
СЗ 1 14 км слабый дождь 10/5 1350 м
[Ac]
+4.4 +1.1 79 +2 +2 1025.9 1001.9 +3.9 +5.0
СЗ 1 16 км слабая морось 10/8 1650 м
[Ac]
+4.4 +1.1 79 +2 +2 1026.3 1002.2
СЗ 1 16 км 10/8 1050 м
[Ac]
+5.0 +1.7 79 +2 +2 1026.3 1002.2
З 1 16 км слабый дождь 10/10 1050 м +5.0 +1.7 79 +2 +2 1026.1 1002.2
СЗ 1 14 км слабый дождь 10/10 450 м +5.6 +1.7 76 +2 +2 1025.4 1001.6
СЗ 2 16 км слабая морось 10/10 510 м +5.6 +1.7 76 +2 +2 1025.2 1001.2
СЗ 1 14 км слабая морось 10/10 540 м +5.6 +1.7 76 +2 +2 1000.9
СЗ 2 8 км слабая морось 10/10 360 м +5.0 +2.2 82 +1 +1 1000.9
СЗ 1 10 км слабая морось 10/10 м +5.0 +2.2 82 +2 +2 1024.9 1000.9 +4.4 +5.6
СЗ 1 6 км слабая морось, дымка 10/10 390 м +4.4 +2.2 86 +1 +1 1000.2
СЗ 1 16 км 10/10 210 м +4.4 +2.2 86 +1 +1 999.9
СЗ 1 16 км 10/10 210 м +4.4 +2.2 86 +1 +1 1024.2 1000.2
СЗ 1 5 км слабый дождь, дымка 10/10 300 м +4.4 +2.2 86 +2 +2 1023.9 999.9
штиль 0 8 км слабый дождь, дымка 10/10 240 м +3.9 +1.7 86 +3 +3 999.9
СЗ 1 8 км слабый дождь, дымка 10/10 240 м +3.9 +1.7 86 +1 +1 1023.6 999.6 1.0
СЗ 1 5 км слабый дождь, дымка 10/10 300 м +3.9 +1.7 86 +1 +1 999.6
СЗ 1 8 км слабый дождь, дымка 10/10 300 м +4.0 +2.0 87 +1 +1 999.3
штиль 0 6 км слабый дождь, дымка 10/10 300 м +3.9 +1.7 86 +3 +3 1023.2 999.3
штиль 0 8 км слабый дождь, дымка 10/10 300 м +3.9 +1.7 86 +3 +3 999.3
штиль 0 16 км 10/10 300 м +3.9 +1.7 86 +3 +3 1022.7 998.9
штиль 0 10 км слабый дождь, дымка 10/10 360 м +3.9 +1.7 86 +3 +3 998.6
ЮВ 1 14 км 10/10 360 м +3.9 +1.7 86 +1 +1 1022.4 998.6 +3.3 +5.0 2.0
Ю 1 13 км 10/5 210 м
[Ac]
+3.9 +2.2 89 +1 +1 998.3
Ю 1 11 км 10/5 210 м
[Ac]
+3.3 +2.2 92 0 0 1022.0 997.9
ЮЗ 1 16 км 10/2 300 м
[Ac]
+3.9 +2.2 89 +1 +1 1021.7 997.9
ЮЗ 1 14 км 10/8 420 м
[Ac]
+3.9 +2.2 89 +1 +1 1021.5 997.6 0.3
ЮЗ 1 13 км 10/10 360 м +3.9 +2.2 89 0 0 997.3
ЮЗ 1 13 км 10/10 360 м +3.9 +2.2 89 0 0 1020.8 996.9
ЮЗ 1 11 км 10/10 240 м +3.9 +2.8 93 +1 +1 996.9
З 1 10 км дымка 10/10 210 м +3.9 +2.8 93 +1 +1 1020.2 996.6
ЮЗ 1 8 км дымка 10/10 210 м +4.4 +3.3 93 +1 +1 1020.1 996.3 +3.3 +4.4 0.3
З 1 6 км дымка 10/10 210 м +5.0 +3.3 89 +1 +1 1020.0 996.3
ЮЗ 2 8 км дымка 10/10 240 м +5.0 +3.3 89 +1 +1 1019.0 995.3
ЮЗ 1 8 км дымка 10/10 240 м +5.0 +3.3 89 +1 +1 995.0
ЮЗ 1 8 км дымка 10/10 240 м +4.4 +3.3 93 +1 +1 1018.3 994.6
ЮЗ 1 6 км дымка 10/10 240 м +4.4 +3.3 93 +1 +1 994.6
ЮЗ 2 6 км дымка 10/10 240 м +4.4 +3.3 93 0 0 1018.7 995.0
ЮЗ 2 6 км дымка 10/10 210 м +5.0 +3.3 89 +1 +1 1018.4 994.6
ЮЗ 2 0 м туман, дымка 10/10 360 м +5.0 +3.3 89 +1 +1 1018.0 994.3 +4.4 +5.0 2.3
Местоположение метеостанции Detroit Metropolitan Wayne County Airport: широта 42.2314 долгота -83.3308 высота над уровнем моря 194 м.
В архиве по умолчанию представлена погода в Детройте за последние 1-2 суток. Обновление информации о фактической погоде в базе происходит ежечасно! Архивные данные за месяц целиком и за предыдущие месяцы Вы можете получить, выбрав интересующий диапазон дат из раскрывающегося списка и нажав кнопку "Ввод!".
Внимание! Архив погоды МЕТАР в базе сайта по станциям, не включенным в климатический монитор, хранится не более 60 дней. Нет смысла пытаться выбрать более раннюю дату.
*Определитесь, кто Вы:
Внимание! Время в таблицах - местное (без учета летнего времени). Для получения всемирного времени необходимо вычесть поправку, которая равна -5 ч.
Смотрите также архив погоды в соседних городах и на ближайших метеорологических станциях:
Партнеры нашего сайта:      
Пояснения к столбцам:
  • Ветер - указаны скорость ветра в м/с - средняя за 10 мин, порывы в срок и между сроками (в фигурных скобках) и направление, откуда дует ветер: С - северный,
  • СВ - северо-восточный, В - восточный, ЮВ - юго-восточный, Ю - южный, ЮЗ - юго-западный, З - западный, СЗ - северо-западный.
  • Видимость - горизонтальная дальность видимости в метрах или километрах. При видимости от 1 до 10 км при отсутствии осадков обычно наблюдается дымка, при ухудшении видимости до 1 км и менее - туман. В сухую погоду видимость может ухудшаться дымом, пылью или мглою.
  • Явления - указаны атмосферные явления, наблюдавшиеся в срок или в последний час перед сроком; фигурными скобками обозначены явления, наблюдавшиеся между сроками (за 1-3 часа до срока); квадратными скобками обозначены град или гололедные отложения с указанием их диаметра в мм.
  • Облачность - указаны через наклонную черту общая и нижняя облачность в баллах и высота нижней границы облаков в метрах; квадратными скобками обозначены формы облаков: Ci - перистые, Cs - перисто-слоистые, Cc - перисто-кучевые, Ac - высококучевые, As - высокослоистые, Sc - слоисто-кучевые, Ns - слоисто-дождевые, Cu - кучевые, Cb - кучево-дождевые. Подробнее классификацию облаков см. в Атласе облаков (PDF).
  • T - Температура воздуха - температура, измеренная на высоте 2 м над землей.
  • Td - Температура точки росы - температура, при понижении до которой содержащийся в воздухе водяной пар достигнет насыщения.
  • f - Относительная влажность воздуха - влажноcть воздуха, измеренная на высоте 2 м над землей.
  • Te - Эффективная температура - температура, которую ощущает одетый по сезону человек в тени. Характеристика душности погоды. При расчете учитывается влияние влажности воздуха и скорости ветра на теплоощущения человека.
  • Tes - Эффективная температура на солнце - температура, которую ощущает человек, с поправкой на солнечный нагрев. Характеристика знойности погоды. Зависит от высоты солнца над горизонтом, облачности и скорости ветра. Ночью, в пасмурную погоду, а также при ветре 12 м/с и более поправка равна нулю.
  • P - Атмосферное давление - приведенное к уровню моря атмосферное давление.
  • Po - Атмосферное давление - измеренное на уровне метеостанции атмосферное давление.
  • Tmin - Минимальная температура - минимум температуры воздуха на высоте 2 м над землей.
  • Tmax - Максимальная температура - максимум температуры воздуха на высоте 2 м над землей.
  • R - Количество осадков - Количество выпавших осадков за период времени, мм. При наведении курсора мыши на число - период времени, за который выпало указанное количество осадков.
  • R24 - Количество осадков - Количество выпавших осадков за 24 часа, мм.
  • S - Снежный покров - Высота снежного покрова, см. При наведении курсора мыши на число - состояние снежного покрова и степень покрытия местности в баллах.